Regional Weather Roundup
Issued by NWS

Home | Current Version | Previous Version | Text Only | Print | Product List | Glossary Off
Versions: 1 2 3 4 5 6 7 8 9 10 11 12 13 14 15 16 17 18 19 20 21 22 23 24 25 26 27 28 29 30 31 32 33 34 35 36 37 38 39 40 41 42 43 44 45 46 47 48 49

635
ASUS45 KBOU 061807
RWRCO

WEATHER ROUNDUP FOR COLORADO
NATIONAL WEATHER SERVICE DENVER/BOULDER CO
1100 AM MST SAT FEB 06 2016

NOTE: "FAIR" INDICATES FEW OR NO CLOUDS BELOW 12000 FEET WITH NO
SIGNIFICANT WEATHER AND/OR OBSTRUCTIONS TO VISIBILITY.

COZ001>005-013-030-031-061900-
...NORTHWEST COLORADO...

CITY           SKY/WX    TMP DP  RH WIND       PRES   REMARKS
CRAIG          CLOUDY    10   4  76 W3        30.51S
HAYDEN         CLOUDY    16   7  67 E12       30.47S WCI   3
MEEKER         FLURRIES  15   5  64 NE3       30.49S
MOUNT WERNER   NOT AVBL
STEAMBOAT SPGS CLOUDY    12   7  80 CALM      30.46F
WALDEN         CLOUDY    19  10  68 SE10      30.37F WCI   8
$$

COZ006>008-011-061900-
...WEST CENTRAL VALLEYS...

CITY           SKY/WX    TMP DP  RH WIND       PRES   REMARKS
GRAND JUNCTION CLOUDY    13  11  92 NW8       30.60S WCI   2
MONTROSE       CLOUDY    22  10  60 N5        30.57F WCI  16
EAGLE          SUNNY      9   1  72 CALM      30.58F
RIFLE          SUNNY     13   5  70 CALM      30.58F
DELTA          CLOUDY    22  10  58 CALM      30.58F
NUCLA          CLOUDY    23  10  58 CALM      30.58R
$$

COZ017>023-064>068-061900-
...SOUTHWEST COLORADO...

CITY           SKY/WX    TMP DP  RH WIND       PRES   REMARKS
DURANGO        CLOUDY    18   9  68 NE6       30.49S WCI  10
CORTEZ         SUNNY     31  11  43 CALM      30.50F
PAGOSA SPRINGS CLOUDY    21  13  70 CALM      30.44F
TELLURIDE      CLOUDY    28  12  51 SE3       30.47S
WOLF CREEK PAS SUNNY     28   9  43 NW7       30.45S WCI  21
$$

COZ009-010-012-014-032>034-037-058>063-061900-
...CENTRAL COLORADO...

CITY           SKY/WX    TMP DP  RH WIND       PRES   REMARKS
ASPEN          CLOUDY    19   8  62 N7        30.45R WCI  10
BUENA VISTA    CLOUDY    24   9  53 SE3       30.36S
COPPER MTN     CLOUDY    21  12  68 NW10G18   30.39R WCI  10
BERTHOUD PASS  FAIR      10   0  61 NW36G49   30.28R WCI -13
COTTONWOOD PAS CLOUDY    32  10  40 W7        30.35R WCI  26
GUNNISON       CLOUDY    -9 -29  37 CALM      30.60S
KREMMLING      CLOUDY   N/A N/A N/A CALM      30.52F
LEADVILLE      CLOUDY    25   9  50 NW8       30.37S WCI  16
MONARCH PASS     N/A     12   9  85 MISG      30.47R
SALIDA         NOT AVBL
SUNLIGHT       CLOUDY    23  19  86 CALM        N/A
WILKERSON PASS CLOUDY    25   9  50 NW15G24   30.33S WCI  12
$$

COZ069>075-061900-
...SAN LUIS VALLEY/SANGRE DE CRISTO MOUNTAINS...

CITY           SKY/WX    TMP DP  RH WIND       PRES   REMARKS
ALAMOSA        CLOUDY    22   5  48 S3        30.44F
LA VETA PASS   CLOUDY    23   9  54 MISG      30.32R
SAGUACHE       CLOUDY    23   7  50 SE7       30.44F WCI  15
$$

COZ035-036-038>040-061900-
...NORTHERN COLORADO FRONT RANGE...

CITY           SKY/WX    TMP DP  RH WIND       PRES   REMARKS
DENVER INTL AP CLOUDY    36  21  54 S14       30.17S
DMNS CITY PARK   N/A     43  14  30 SE7       30.18R
AURORA         PTSUNNY   40  20  44 S12       30.18F
FRONT RANGE AP PTSUNNY   37  19  48 MISG      30.18F
ERIE MUNI ARPT CLOUDY    30  16  57 CALM      30.17R
BOULDER MUN AP CLOUDY    34  12  40 NE8       30.16S WCI  27
CENTENNIAL     CLOUDY    42  18  37 SW10      30.18F
BROOMFIELD     MOSUNNY   19  18  93 W21G31    30.17S WCI   3
FORT COLLINS   CLOUDY    32  18  55 CALM      30.19R
LONGMONT       CLOUDY    38  15  39 CALM      30.19S
$$

COZ041-046-047-076>085-087-088-061900-
...PIKES PEAK/PALMER DIVIDE AND SOUTHERN FOOTHILLS...

CITY           SKY/WX    TMP DP  RH WIND       PRES   REMARKS
COLO. SPRINGS  CLOUDY    41  10  28 E3        30.23F
A. F. ACADEMY  CLOUDY    39  13  34 S10       30.21F
SCHRIEVER AFB  FAIR      38   2  22 S3        30.23F
ELLICOTT       NOT AVBL
FALCON         CLOUDY    40   9  28 SW7       30.23F
FORT CARSON    CLOUDY    35  16  46 NW2       30.21F
LIMON          CLOUDY    28  12  51 NE9       30.22F WCI  19
MONUMENT HILL  CLOUDY    37  12  35 SW8       30.22F
TRINIDAD       SUNNY     43  13  29 CALM      30.26F
$$

COZ042>045-048>051-090-091-061900-
...NORTHEAST COLORADO...

CITY           SKY/WX    TMP DP  RH WIND       PRES   REMARKS
GREELEY ARPT   CLOUDY    18  10  73 N6        30.21S WCI   9
AKRON          CLOUDY    30  13  49 SW10      30.19S WCI  21
BURLINGTON     CLOUDY    35  18  49 SW15      30.22F WCI  25
WRAY           CLOUDY    36  18  49 SW9       30.20F
STERLING       CLOUDY    21  12  68 SW13      30.19F WCI   9
HOLYOKE        CLOUDY    36  21  55 W15       30.18F
FORT MORGAN    CLOUDY    22  11  64 W8        30.21S WCI  12
$$

COZ086-089-092>099-061900-
...SOUTHEAST COLORADO...

CITY           SKY/WX    TMP DP  RH WIND       PRES   REMARKS
PUEBLO         SUNNY     36  18  48 E6        30.25F
LA JUNTA       SUNNY     35  17  47 NW5       30.28F WCI  31
LAMAR          SUNNY     35  19  52 SW9       30.27F WCI  28
SPRINGFIELD      N/A     46   7  20 W6        30.26F
$$




USA.gov is the U.S. government's official web portal to all federal, state and local government web resources and services.